Location: Tucson
(32.2217°N, 110.9265°W)
Time: 06:03:01
(UTC-07:00)

Courier 1B Rocket - Visible Passes

Search period start: 25 October 2021 00:00
Search period end: 04 November 2021 00:00
Orbit: 920 x 1202 km, 28.2° (Epoch: 24 October)

Date Brightness Start Highest point End Pass type
(mag) Time Alt. Az. Time Alt. Az. Time Alt. Az.
25 Oct 5.9 19:17:05 10° W 19:22:49 38° SSW 19:25:47 24° SSE visible
26 Oct 5.7 18:15:52 10° W 18:21:57 47° SSW 18:27:52 10° ESE visible
26 Oct 6.6 20:10:14 10° WSW 20:14:46 21° SSW 20:15:10 21° SSW visible
27 Oct 6.4 19:08:38 10° W 19:13:57 29° SSW 19:18:14 14° SSE visible
28 Oct 6.2 18:07:14 10° W 18:13:08 37° SSW 18:18:49 10° SE visible
28 Oct 7.1 20:02:43 10° WSW 20:05:49 14° SSW 20:07:49 12° S visible
29 Oct 6.9 19:00:27 10° WSW 19:05:02 21° SSW 19:09:32 10° SSE visible
30 Oct 6.7 17:58:44 10° W 18:04:14 29° SSW 18:09:32 10° SE visible
31 Oct 7.3 18:52:54 10° WSW 18:56:03 14° SSW 18:59:09 10° S visible
01 Nov 7.2 17:50:29 10° WSW 17:55:16 21° SSW 17:59:53 10° SSE visible
